Fairbanks, AK

4:04 AM AKDT on August 18, 2017 (GMT -0800)
Fairbanks International

Weather History for PAFA - December, 2011

Change the Weather History Date:

Friday, December 9, 2011

  Actual Average Record
Temperature  
Mean Temperature 15 °F -3 °F  
Max Temperature 20 °F 6 °F 42 °F (1960)
Min Temperature 10 °F -10 °F -55 °F (1935)
Degree Days  
Heating Degree Days 50 68  
Month to date heating degree days 460 609  
Since 1 July heating degree days 4575 4740  
Cooling Degree Days 0 0  
Month to date cooling degree days 0 0  
Year to date cooling degree days 39 61  
Moisture  
Dew Point 15 °F    
Average Humidity 91    
Maximum Humidity 93    
Minimum Humidity 86    
Precipitation  
Precipitation 0.19 in 0.02 in 0.37 in (1972)
Month to date precipitation 0.32 0.17  
Year to date precipitation 8.91 10.34  
Snow  
Snow 2.90 in 0.30 in 4.80 in (1972)
Month to date snowfall 4.9 3.3  
Since 1 July snowfall 18.3 29.1  
Snow Depth 8.00 in    
Sea Level Pressure  
Sea Level Pressure 29.88 in    
Wind  
Wind Speed 0 mph (NE)    
Max Wind Speed 5 mph    
Max Gust Speed -    
Visibility 3 miles    
Events Snow    
T = Trace of Precipitation, MM = Missing Value Source: NWS Daily Summary

Daily Weather History Graph

Daily Weather History Graph

Search for Another Location

Airport or City:

Trip Planner

Search our weather history database for the weather conditions in past years. The results will help you decide how hot, cold, wet, or windy it might be!

Date:

Astronomy

Dec. 09, 2011 Rise Set
Actual Time 10:40 AM AKST 2:47 PM AKST
Civil Twilight 9:19 AM AKST 4:07 PM AKST
Nautical Twilight 8:09 AM AKST 5:17 PM AKST
Astronomical Twilight 7:08 AM AKST 6:18 PM AKST
Moon 2:09 PM AKST (12/9) 10:04 AM AKST (12/9)
Length of Visible Light 6h 48m
Length of Day
4h 06m
Waxing Gibbous, 99% of the Moon is Illuminated
Dec 9
Waxing Gibbous
Dec 10
Full
Dec 17
Last Quarter
Dec 24
New
Dec 31
First Quarter

Hourly Weather History & Observations

Time (AKST) Temp. Windchill Dew Point Humidity Pressure Visibility Wind Dir Wind Speed Gust Speed Precip Events Conditions
12:53 AM 10.0 °F - 8.1 °F 92% 29.76 in 8.0 mi Calm Calm - N/A   Mostly Cloudy
1:53 AM 10.9 °F - 8.1 °F 88% 29.76 in 8.0 mi Calm Calm - N/A   Mostly Cloudy
3:53 AM 15.1 °F - 12.0 °F 88% 29.78 in 10.0 mi Calm Calm - N/A   Mostly Cloudy
4:53 AM 15.1 °F - 12.9 °F 91% 29.78 in 10.0 mi Calm Calm - N/A   Overcast
5:53 AM 15.1 °F - 12.0 °F 88% 29.79 in 10.0 mi Calm Calm - N/A   Overcast
6:53 AM 12.9 °F - 10.9 °F 92% 29.80 in 10.0 mi Calm Calm - N/A   Overcast
7:53 AM 14.0 °F - 10.9 °F 88% 29.82 in 7.0 mi Calm Calm - 0.00 in Snow Light Snow
8:25 AM 15.8 °F - 12.2 °F 86% 29.79 in 3.0 mi Calm Calm - 0.00 in Snow Light Snow
8:28 AM 15.8 °F - 12.2 °F 86% 29.79 in 2.5 mi Calm Calm - 0.00 in Snow Light Snow
8:53 AM 16.0 °F - 14.0 °F 92% 29.83 in 2.0 mi Calm Calm - 0.01 in Snow Light Snow
9:01 AM 15.8 °F - 14.0 °F 93% 29.80 in 1.8 mi Calm Calm - 0.00 in Snow Light Snow
9:22 AM 15.8 °F - 14.0 °F 93% 29.80 in 2.0 mi Calm Calm - 0.01 in Snow Light Snow
9:25 AM 15.8 °F - 14.0 °F 93% 29.81 in 2.0 mi Calm Calm - 0.01 in Snow Light Snow
9:35 AM 17.6 °F - 15.8 °F 93% 29.81 in 2.0 mi Calm Calm - 0.01 in Snow Light Snow
9:53 AM 17.1 °F 11.7 °F 14.0 °F 88% 29.85 in 2.0 mi NNE 3.5 mph - 0.01 in Snow Light Snow
10:01 AM 17.6 °F - 15.8 °F 93% 29.82 in 1.5 mi Calm Calm - 0.00 in Snow Light Snow
10:05 AM 17.6 °F - 15.8 °F 93% 29.82 in 1.0 mi Calm Calm - 0.00 in Snow Light Snow
10:53 AM 18.0 °F - 16.0 °F 92% 29.87 in 1.0 mi Calm Calm - 0.02 in Snow Light Snow
11:53 AM 18.0 °F - 16.0 °F 92% 29.89 in 1.5 mi Calm Calm - 0.02 in Snow Light Snow
12:53 PM 18.0 °F - 16.0 °F 92% 29.91 in 2.0 mi Calm Calm - 0.01 in Snow Light Snow
1:53 PM 18.0 °F - 15.1 °F 88% 29.92 in 2.0 mi Calm Calm - 0.01 in Snow Light Snow
2:13 PM 17.6 °F - 15.8 °F 93% 29.88 in 2.0 mi Calm Calm - 0.00 in Snow Light Snow
2:53 PM 19.0 °F - 16.0 °F 88% 29.93 in 2.0 mi Calm Calm - 0.00 in Snow Light Snow
3:12 PM 17.6 °F 12.3 °F 15.8 °F 93% 29.89 in 1.0 mi NE 3.5 mph - 0.00 in Snow Light Snow
3:53 PM 18.0 °F - 16.0 °F 92% 29.94 in 2.0 mi Calm Calm - 0.01 in Snow Light Snow
4:35 PM 17.6 °F - 15.8 °F 93% 29.91 in 1.5 mi Calm Calm - 0.01 in Snow Light Snow
4:53 PM 17.1 °F 11.7 °F 15.1 °F 92% 29.95 in 2.0 mi NNE 3.5 mph - 0.01 in Snow Light Snow
5:38 PM 17.6 °F - 15.8 °F 93% 29.92 in 1.5 mi Calm Calm - 0.01 in Snow Light Snow
5:53 PM 18.0 °F - 16.0 °F 92% 29.96 in 1.5 mi Calm Calm - 0.01 in Snow Light Snow
6:53 PM 19.0 °F - 17.1 °F 92% 29.98 in 1.5 mi Calm Calm - 0.02 in Snow Light Snow
7:10 PM 19.4 °F - 15.8 °F 86% 29.94 in 1.5 mi Calm Calm - 0.01 in Snow Light Snow
7:53 PM 19.0 °F 13.9 °F 17.1 °F 92% 29.99 in 1.5 mi North 3.5 mph - 0.02 in Snow Light Snow
8:53 PM 19.0 °F - 17.1 °F 92% 29.99 in 1.5 mi Calm Calm - 0.01 in Snow Light Snow
9:17 PM 19.4 °F - 17.6 °F 93% 29.96 in 1.5 mi Calm Calm - 0.01 in Snow Light Snow
9:53 PM 19.0 °F 13.9 °F 16.0 °F 88% 30.01 in 2.0 mi NE 3.5 mph - 0.02 in Snow Light Snow
10:42 PM 17.6 °F - 15.8 °F 93% 29.98 in 3.0 mi Calm Calm - 0.00 in Snow Light Snow
10:53 PM 17.1 °F - 15.1 °F 92% 30.02 in 3.0 mi Calm Calm - 0.00 in Snow Light Snow
11:17 PM 19.4 °F 12.8 °F 17.6 °F 93% 29.99 in 4.0 mi NE 4.6 mph - 0.01 in Snow Light Snow
11:53 PM 19.9 °F - 18.0 °F 92% 30.03 in 4.0 mi Calm Calm - 0.01 in Snow Light Snow